When you browse on this site, cookies collect data to enhance your experience and personalize the content and advertising you see.
Visit our Privacy Policy to learn more. By continuing to use the site, you agree to this use of cookies and data.
  • în România
  • Lista ţărilor
  • Pe 7 zile
  • Temperatura apei
  • Meteo pe hartă
  • Widget-uri
  • user-avatar
    Intrare

    Meteo pe oră la Cachungo

    Astăzi, 14 Noiembrie, Joi

    Timp Temperatura Precipitaţii Vânt Presiune Umiditate
    00:00 +27°C° 0 mm 2 m/s 755 mmHg 79%
    01:00 +27°C° 0 mm 2 m/s 755 mmHg 80%
    02:00 +27°C° 0 mm 2 m/s 755 mmHg 81%
    03:00 +26°C° 0 mm 2 m/s 755 mmHg 82%
    04:00 +26°C° 0 mm 2 m/s 755 mmHg 83%
    05:00 +25°C° 0 mm 2 m/s 755 mmHg 85%
    06:00 +27°C° 0 mm 2 m/s 755 mmHg 76%
    07:00 +28°C° 0 mm 2 m/s 756 mmHg 68%
    08:00 +29°C° 0 mm 2 m/s 756 mmHg 59%
    09:00 +32°C° 0 mm 1 m/s 756 mmHg 52%
    10:00 +34°C° 0 mm 1 m/s 756 mmHg 44%
    11:00 +36°C° 0 mm 1 m/s 755 mmHg 37%
    12:00 +38°C° 0 mm 2 m/s 755 mmHg 35%
    13:00 +39°C° 0 mm 2 m/s 754 mmHg 34%
    14:00 +39°C° 0 mm 3 m/s 753 mmHg 32%
    15:00 +37°C° 0 mm 3 m/s 753 mmHg 40%
    16:00 +34°C° 0 mm 3 m/s 753 mmHg 47%
    17:00 +32°C° 0 mm 4 m/s 753 mmHg 54%
    18:00 +30°C° 0 mm 3 m/s 754 mmHg 59%
    19:00 +29°C° 0 mm 3 m/s 754 mmHg 63%
    20:00 +28°C° 0 mm 3 m/s 755 mmHg 67%
    21:00 +27°C° 0 mm 3 m/s 755 mmHg 69%
    22:00 +27°C° 0 mm 3 m/s 755 mmHg 70%
    23:00 +27°C° 0 mm 3 m/s 755 mmHg 72%

    Mâine, 15 Noiembrie, Vineri

    Timp Temperatura Precipitaţii Vânt Presiune Umiditate
    00:00 +27°C° 0 mm 2 m/s 755 mmHg 73%
    01:00 +26°C° 0 mm 2 m/s 755 mmHg 74%
    02:00 +26°C° 0 mm 2 m/s 754 mmHg 76%
    03:00 +26°C° 0 mm 3 m/s 754 mmHg 77%
    04:00 +25°C° 0 mm 3 m/s 754 mmHg 78%
    05:00 +25°C° 0 mm 3 m/s 754 mmHg 80%
    06:00 +26°C° 0 mm 3 m/s 755 mmHg 73%
    07:00 +27°C° 0 mm 3 m/s 755 mmHg 66%
    08:00 +29°C° 0 mm 3 m/s 756 mmHg 59%
    09:00 +31°C° 0 mm 3 m/s 755 mmHg 49%
    10:00 +34°C° 0 mm 3 m/s 755 mmHg 39%
    11:00 +37°C° 0 mm 3 m/s 755 mmHg 28%
    12:00 +37°C° 0 mm 3 m/s 754 mmHg 28%
    13:00 +38°C° 0 mm 3 m/s 754 mmHg 28%
    14:00 +40°C° 0 mm 4 m/s 753 mmHg 27%
    15:00 +37°C° 0 mm 4 m/s 753 mmHg 32%
    16:00 +35°C° 0 mm 4 m/s 753 mmHg 37%
    17:00 +33°C° 0 mm 4 m/s 753 mmHg 42%
    18:00 +30°C° 0 mm 4 m/s 753 mmHg 48%
    19:00 +29°C° 0 mm 3 m/s 754 mmHg 53%
    20:00 +27°C° 0 mm 3 m/s 755 mmHg 59%
    21:00 +27°C° 0 mm 3 m/s 755 mmHg 63%
    22:00 +26°C° 0 mm 3 m/s 755 mmHg 67%
    23:00 +26°C° 0 mm 2 m/s 755 mmHg 71%

    Poimâine, 16 Noiembrie, Sâmbătă

    Timp Temperatura Precipitaţii Vânt Presiune Umiditate
    00:00 +25°C° 0 mm 3 m/s 755 mmHg 74%
    01:00 +25°C° 0 mm 3 m/s 754 mmHg 78%
    02:00 +24°C° 0 mm 3 m/s 754 mmHg 81%
    03:00 +24°C° 0 mm 3 m/s 754 mmHg 81%
    04:00 +24°C° 0 mm 3 m/s 754 mmHg 81%
    05:00 +24°C° 0 mm 3 m/s 754 mmHg 81%
    06:00 +25°C° 0 mm 3 m/s 754 mmHg 73%
    07:00 +27°C° 0 mm 3 m/s 755 mmHg 65%
    08:00 +28°C° 0 mm 4 m/s 755 mmHg 56%
    09:00 +31°C° 0 mm 3 m/s 755 mmHg 46%
    10:00 +34°C° 0 mm 3 m/s 755 mmHg 35%
    11:00 +37°C° 0 mm 2 m/s 755 mmHg 25%
    12:00 +38°C° 0 mm 2 m/s 754 mmHg 24%
    13:00 +39°C° 0 mm 2 m/s 753 mmHg 24%
    14:00 +40°C° 0 mm 2 m/s 753 mmHg 23%
    15:00 +37°C° 0 mm 2 m/s 753 mmHg 33%
    16:00 +35°C° 0 mm 3 m/s 753 mmHg 42%
    17:00 +32°C° 0 mm 4 m/s 753 mmHg 51%
    18:00 +30°C° 0 mm 4 m/s 753 mmHg 56%
    19:00 +29°C° 0 mm 3 m/s 754 mmHg 60%
    20:00 +27°C° 0 mm 3 m/s 755 mmHg 64%
    21:00 +27°C° 0 mm 2 m/s 755 mmHg 67%
    22:00 +27°C° 0 mm 2 m/s 755 mmHg 69%
    23:00 +26°C° 0 mm 2 m/s 755 mmHg 72%

    17 Noiembrie, Duminică

    Timp Temperatura Precipitaţii Vânt Presiune Umiditate
    00:00 +26°C° 0 mm 2 m/s 755 mmHg 75%
    01:00 +26°C° 0 mm 2 m/s 754 mmHg 79%
    02:00 +25°C° 0 mm 2 m/s 754 mmHg 83%
    03:00 +25°C° 0 mm 2 m/s 754 mmHg 84%
    04:00 +25°C° 0 mm 2 m/s 754 mmHg 85%
    05:00 +24°C° 0 mm 2 m/s 754 mmHg 86%
    06:00 +26°C° 0 mm 2 m/s 755 mmHg 78%
    07:00 +27°C° 0 mm 2 m/s 755 mmHg 70%
    08:00 +28°C° 0 mm 2 m/s 756 mmHg 62%
    09:00 +31°C° 0 mm 2 m/s 755 mmHg 51%
    10:00 +34°C° 0 mm 2 m/s 755 mmHg 39%
    11:00 +37°C° 0 mm 2 m/s 755 mmHg 27%
    12:00 +38°C° 0 mm 2 m/s 754 mmHg 26%
    13:00 +38°C° 0 mm 2 m/s 754 mmHg 25%
    14:00 +39°C° 0 mm 3 m/s 753 mmHg 23%
    15:00 +38°C° 0 mm 3 m/s 753 mmHg 29%
    16:00 +36°C° 0 mm 3 m/s 753 mmHg 36%
    17:00 +34°C° 0 mm 3 m/s 753 mmHg 42%
    18:00 +33°C° 0 mm 3 m/s 754 mmHg 49%
    19:00 +30°C° 0 mm 3 m/s 754 mmHg 56%
    20:00 +28°C° 0 mm 3 m/s 755 mmHg 63%
    21:00 +28°C° 0 mm 3 m/s 755 mmHg 59%
    22:00 +28°C° 0 mm 3 m/s 755 mmHg 54%
    23:00 +28°C° 0 mm 3 m/s 755 mmHg 50%

    18 Noiembrie, Luni

    Timp Temperatura Precipitaţii Vânt Presiune Umiditate
    00:00 +27°C° 0 mm 2 m/s 755 mmHg 53%
    01:00 +26°C° 0 mm 2 m/s 754 mmHg 56%
    02:00 +25°C° 0 mm 2 m/s 754 mmHg 60%
    03:00 +25°C° 0 mm 2 m/s 754 mmHg 63%
    04:00 +25°C° 0 mm 2 m/s 754 mmHg 65%
    05:00 +25°C° 0 mm 2 m/s 754 mmHg 68%
    06:00 +26°C° 0 mm 2 m/s 754 mmHg 61%
    07:00 +28°C° 0 mm 2 m/s 755 mmHg 54%
    08:00 +29°C° 0 mm 2 m/s 755 mmHg 47%
    09:00 +32°C° 0 mm 2 m/s 755 mmHg 39%
    10:00 +36°C° 0 mm 2 m/s 754 mmHg 31%
    11:00 +37°C° 0 mm 1 m/s 754 mmHg 22%
    12:00 +39°C° 0 mm 2 m/s 754 mmHg 22%
    13:00 +39°C° 0 mm 2 m/s 753 mmHg 22%
    14:00 +40°C° 0 mm 2 m/s 753 mmHg 22%
    15:00 +37°C° 0 mm 2 m/s 753 mmHg 31%
    16:00 +35°C° 0 mm 2 m/s 753 mmHg 40%
    17:00 +31°C° 0 mm 3 m/s 753 mmHg 49%
    18:00 +30°C° 0 mm 3 m/s 753 mmHg 53%
    19:00 +29°C° 0 mm 3 m/s 754 mmHg 57%
    20:00 +27°C° 0 mm 3 m/s 755 mmHg 61%
    21:00 +27°C° 0 mm 3 m/s 755 mmHg 60%
    22:00 +27°C° 0 mm 3 m/s 755 mmHg 60%
    23:00 +27°C° 0 mm 2 m/s 755 mmHg 59%

    19 Noiembrie, Marţi

    Timp Temperatura Precipitaţii Vânt Presiune Umiditate
    00:00 +27°C° 0 mm 2 m/s 755 mmHg 60%
    01:00 +26°C° 0 mm 2 m/s 754 mmHg 62%
    02:00 +26°C° 0 mm 2 m/s 754 mmHg 63%
    03:00 +26°C° 0 mm 2 m/s 754 mmHg 61%
    04:00 +25°C° 0 mm 2 m/s 754 mmHg 59%
    05:00 +25°C° 0 mm 2 m/s 754 mmHg 57%
    06:00 +26°C° 0 mm 2 m/s 754 mmHg 50%
    07:00 +28°C° 0 mm 3 m/s 755 mmHg 43%
    08:00 +29°C° 0 mm 3 m/s 755 mmHg 37%
    09:00 +33°C° 0 mm 3 m/s 755 mmHg 31%
    10:00 +35°C° 0 mm 4 m/s 755 mmHg 25%
    11:00 +38°C° 0 mm 4 m/s 754 mmHg 19%
    12:00 +40°C° 0 mm 4 m/s 754 mmHg 18%
    13:00 +40°C° 0 mm 3 m/s 753 mmHg 17%
    14:00 +42°C° 0 mm 3 m/s 753 mmHg 16%
    15:00 +38°C° 0 mm 3 m/s 753 mmHg 23%
    16:00 +36°C° 0 mm 3 m/s 753 mmHg 30%
    17:00 +34°C° 0 mm 3 m/s 753 mmHg 38%
    18:00 +31°C° 0 mm 3 m/s 753 mmHg 45%
    19:00 +29°C° 0 mm 3 m/s 754 mmHg 52%
    20:00 +28°C° 0 mm 3 m/s 754 mmHg 60%
    21:00 +27°C° 0 mm 3 m/s 755 mmHg 61%
    22:00 +26°C° 0 mm 3 m/s 755 mmHg 61%
    23:00 +26°C° 0 mm 2 m/s 755 mmHg 62%
    Arată mai mult